When you browse on this site, cookies collect data to enhance your experience and personalize the content and advertising you see.
Visit our Privacy Policy to learn more. By continuing to use the site, you agree to this use of cookies and data.
  • In Lithuania
  • List of Countries
  • For 7 days
  • Water Temperature
  • Weather Map
  • Weather Widgets
  • user-avatar
    Login

    Hourly Weather Dipayal

    Today, 29 May, Friday

    Time Temperature Precipitation Wind Pressure Humidity
    00:00 +23°C° 0.1 mm 2 mps 701 mmHg 69%
    01:00 +23°C° 0.1 mm 2 mps 701 mmHg 67%
    02:00 +23°C° 0.1 mm 2 mps 700 mmHg 66%
    03:00 +23°C° 0.1 mm 1 mps 700 mmHg 65%
    04:00 +23°C° 0.1 mm 1 mps 700 mmHg 64%
    05:00 +24°C° 0.1 mm 1 mps 700 mmHg 63%
    06:00 +26°C° 0 mm 1 mps 701 mmHg 54%
    07:00 +29°C° 0 mm 1 mps 701 mmHg 46%
    08:00 +30°C° 0 mm 0 mps 702 mmHg 37%
    09:00 +33°C° 0 mm 1 mps 702 mmHg 33%
    10:00 +36°C° 0 mm 2 mps 702 mmHg 30%
    11:00 +37°C° 0 mm 2 mps 701 mmHg 26%
    12:00 +36°C° 0 mm 2 mps 701 mmHg 30%
    13:00 +35°C° 0 mm 3 mps 700 mmHg 33%
    14:00 +34°C° 0 mm 3 mps 700 mmHg 36%
    15:00 +30°C° 1.5 mm 2 mps 699 mmHg 50%
    16:00 +28°C° 1.5 mm 2 mps 699 mmHg 64%
    17:00 +25°C° 1.5 mm 2 mps 698 mmHg 78%
    18:00 +24°C° 0.2 mm 2 mps 699 mmHg 79%
    19:00 +23°C° 0.2 mm 2 mps 699 mmHg 80%
    20:00 +23°C° 0.2 mm 2 mps 700 mmHg 80%
    21:00 +23°C° 0 mm 2 mps 700 mmHg 79%
    22:00 +23°C° 0 mm 2 mps 700 mmHg 78%
    23:00 +23°C° 0 mm 2 mps 701 mmHg 76%

    Tomorrow, 30 May, Saturday

    Time Temperature Precipitation Wind Pressure Humidity
    00:00 +23°C° 0 mm 2 mps 700 mmHg 74%
    01:00 +23°C° 0 mm 2 mps 700 mmHg 72%
    02:00 +23°C° 0 mm 2 mps 700 mmHg 70%
    03:00 +23°C° 0 mm 2 mps 700 mmHg 68%
    04:00 +24°C° 0 mm 2 mps 700 mmHg 67%
    05:00 +24°C° 0 mm 1 mps 700 mmHg 65%
    06:00 +27°C° 0 mm 1 mps 701 mmHg 56%
    07:00 +30°C° 0 mm 1 mps 702 mmHg 46%
    08:00 +33°C° 0 mm 1 mps 703 mmHg 37%
    09:00 +34°C° 0 mm 1 mps 703 mmHg 34%
    10:00 +36°C° 0 mm 2 mps 703 mmHg 31%
    11:00 +37°C° 0 mm 2 mps 703 mmHg 28%
    12:00 +37°C° 0 mm 2 mps 703 mmHg 28%
    13:00 +37°C° 0 mm 2 mps 702 mmHg 28%
    14:00 +37°C° 0 mm 1 mps 702 mmHg 28%
    15:00 +36°C° 0 mm 2 mps 701 mmHg 34%
    16:00 +34°C° 0 mm 2 mps 701 mmHg 39%
    17:00 +31°C° 0 mm 3 mps 700 mmHg 45%
    18:00 +29°C° 0 mm 2 mps 701 mmHg 51%
    19:00 +27°C° 0 mm 2 mps 701 mmHg 57%
    20:00 +25°C° 0 mm 2 mps 701 mmHg 62%
    21:00 +25°C° 0 mm 2 mps 702 mmHg 61%
    22:00 +25°C° 0 mm 2 mps 702 mmHg 60%
    23:00 +25°C° 0 mm 2 mps 702 mmHg 58%

    Day after tomorrow, 31 May, Sunday

    Time Temperature Precipitation Wind Pressure Humidity
    00:00 +25°C° 0 mm 2 mps 702 mmHg 57%
    01:00 +25°C° 0 mm 1 mps 702 mmHg 56%
    02:00 +25°C° 0 mm 1 mps 702 mmHg 55%
    03:00 +25°C° 0 mm 1 mps 702 mmHg 54%
    04:00 +24°C° 0 mm 1 mps 702 mmHg 54%
    05:00 +24°C° 0 mm 1 mps 702 mmHg 54%
    06:00 +27°C° 0 mm 1 mps 703 mmHg 47%
    07:00 +31°C° 0 mm 1 mps 704 mmHg 41%
    08:00 +34°C° 0 mm 1 mps 704 mmHg 34%
    09:00 +34°C° 0 mm 1 mps 704 mmHg 33%
    10:00 +36°C° 0 mm 2 mps 704 mmHg 33%
    11:00 +36°C° 0 mm 2 mps 704 mmHg 32%
    12:00 +36°C° 0.1 mm 2 mps 703 mmHg 35%
    13:00 +35°C° 0.1 mm 2 mps 702 mmHg 38%
    14:00 +34°C° 0.1 mm 1 mps 702 mmHg 41%
    15:00 +34°C° 0 mm 1 mps 701 mmHg 40%
    16:00 +34°C° 0 mm 1 mps 701 mmHg 39%
    17:00 +33°C° 0 mm 1 mps 700 mmHg 38%
    18:00 +31°C° 0.1 mm 1 mps 701 mmHg 44%
    19:00 +30°C° 0.1 mm 2 mps 701 mmHg 50%
    20:00 +28°C° 0.1 mm 2 mps 702 mmHg 56%
    21:00 +27°C° 0.1 mm 2 mps 702 mmHg 60%
    22:00 +26°C° 0.1 mm 2 mps 702 mmHg 65%
    23:00 +25°C° 0.1 mm 2 mps 702 mmHg 70%

    1 June, Monday

    Time Temperature Precipitation Wind Pressure Humidity
    00:00 +25°C° 0 mm 2 mps 702 mmHg 68%
    01:00 +25°C° 0 mm 2 mps 702 mmHg 66%
    02:00 +25°C° 0 mm 2 mps 701 mmHg 64%
    03:00 +25°C° 0 mm 2 mps 701 mmHg 63%
    04:00 +25°C° 0 mm 2 mps 702 mmHg 62%
    05:00 +25°C° 0 mm 2 mps 702 mmHg 61%
    06:00 +28°C° 0 mm 1 mps 702 mmHg 53%
    07:00 +31°C° 0 mm 1 mps 703 mmHg 44%
    08:00 +34°C° 0 mm 1 mps 704 mmHg 36%
    09:00 +35°C° 0 mm 1 mps 704 mmHg 33%
    10:00 +36°C° 0 mm 1 mps 703 mmHg 31%
    11:00 +37°C° 0 mm 2 mps 703 mmHg 29%
    12:00 +37°C° 0 mm 2 mps 703 mmHg 30%
    13:00 +37°C° 0 mm 2 mps 702 mmHg 30%
    14:00 +37°C° 0 mm 2 mps 702 mmHg 31%
    15:00 +36°C° 0.1 mm 2 mps 701 mmHg 34%
    16:00 +35°C° 0.1 mm 1 mps 701 mmHg 36%
    17:00 +34°C° 0.1 mm 1 mps 700 mmHg 39%
    18:00 +31°C° 0.3 mm 2 mps 701 mmHg 47%
    19:00 +29°C° 0.3 mm 2 mps 701 mmHg 56%
    20:00 +27°C° 0.3 mm 3 mps 701 mmHg 64%
    21:00 +26°C° 0 mm 2 mps 701 mmHg 65%
    22:00 +25°C° 0 mm 2 mps 701 mmHg 66%
    23:00 +25°C° 0 mm 2 mps 701 mmHg 67%

    2 June, Tuesday

    Time Temperature Precipitation Wind Pressure Humidity
    00:00 +25°C° 0 mm 2 mps 700 mmHg 65%
    01:00 +24°C° 0 mm 2 mps 700 mmHg 63%
    02:00 +24°C° 0 mm 2 mps 699 mmHg 61%
    03:00 +24°C° 0 mm 2 mps 700 mmHg 60%
    04:00 +24°C° 0 mm 2 mps 700 mmHg 59%
    05:00 +24°C° 0 mm 2 mps 700 mmHg 58%
    06:00 +28°C° 0 mm 1 mps 700 mmHg 50%
    07:00 +31°C° 0 mm 1 mps 701 mmHg 41%
    08:00 +33°C° 0 mm 0 mps 702 mmHg 33%
    09:00 +36°C° 0 mm 1 mps 702 mmHg 30%
    10:00 +37°C° 0 mm 1 mps 702 mmHg 28%
    11:00 +40°C° 0 mm 1 mps 702 mmHg 25%
    12:00 +37°C° 0 mm 1 mps 701 mmHg 29%
    13:00 +36°C° 0 mm 1 mps 700 mmHg 33%
    14:00 +34°C° 0 mm 1 mps 699 mmHg 37%
    15:00 +35°C° 0 mm 1 mps 699 mmHg 35%
    16:00 +35°C° 0 mm 1 mps 699 mmHg 34%
    17:00 +35°C° 0 mm 1 mps 699 mmHg 33%
    18:00 +33°C° 0.2 mm 1 mps 699 mmHg 40%
    19:00 +31°C° 0.2 mm 2 mps 699 mmHg 47%
    20:00 +29°C° 0.2 mm 2 mps 700 mmHg 54%
    21:00 +28°C° 0 mm 2 mps 700 mmHg 56%
    22:00 +27°C° 0 mm 2 mps 700 mmHg 57%
    23:00 +27°C° 0 mm 2 mps 700 mmHg 59%

    3 June, Wednesday

    Time Temperature Precipitation Wind Pressure Humidity
    00:00 +26°C° 0 mm 2 mps 700 mmHg 58%
    01:00 +26°C° 0 mm 2 mps 699 mmHg 58%
    02:00 +25°C° 0 mm 2 mps 699 mmHg 57%
    03:00 +25°C° 0 mm 2 mps 699 mmHg 57%
    04:00 +25°C° 0 mm 2 mps 699 mmHg 56%
    05:00 +25°C° 0 mm 2 mps 699 mmHg 55%
    06:00 +29°C° 0 mm 1 mps 699 mmHg 47%
    07:00 +32°C° 0 mm 1 mps 700 mmHg 39%
    08:00 +35°C° 0 mm 1 mps 700 mmHg 31%
    09:00 +37°C° 0 mm 1 mps 700 mmHg 27%
    10:00 +40°C° 0 mm 1 mps 701 mmHg 23%
    11:00 +41°C° 0 mm 1 mps 701 mmHg 19%
    12:00 +41°C° 0 mm 2 mps 700 mmHg 19%
    13:00 +40°C° 0 mm 2 mps 700 mmHg 20%
    14:00 +39°C° 0 mm 2 mps 699 mmHg 21%
    15:00 +39°C° 0 mm 2 mps 699 mmHg 23%
    16:00 +37°C° 0 mm 1 mps 699 mmHg 25%
    17:00 +37°C° 0 mm 1 mps 698 mmHg 27%
    18:00 +35°C° 0 mm 1 mps 699 mmHg 30%
    19:00 +32°C° 0 mm 1 mps 699 mmHg 34%
    20:00 +30°C° 0 mm 1 mps 699 mmHg 37%
    21:00 +30°C° 0 mm 1 mps 699 mmHg 37%
    22:00 +29°C° 0 mm 1 mps 700 mmHg 38%
    23:00 +29°C° 0 mm 1 mps 700 mmHg 39%
    Show more